Regional Weather Roundup
Issued by NWS

Home | Current Version | Previous Version | Text Only | Print | Product List | Glossary Off
Versions: 1 2 3 4 5 6 7 8 9 10 11 12 13 14 15 16 17 18 19 20 21 22 23 24 25 26 27 28 29 30 31 32 33 34 35 36 37 38 39 40 41 42 43 44 45 46 47 48 49 50

000
ASUS43 KBIS 280802
RWRND

NORTH DAKOTA REGIONAL WEATHER ROUNDUP
NATIONAL WEATHER SERVICE BISMARCK ND
300 AM CDT THU MAY 28 2015

NOTE: "FAIR" INDICATES FEW OR NO CLOUDS BELOW 12,000 FEET WITH NO
SIGNIFICANT WEATHER AND/OR OBSTRUCTIONS TO VISIBILITY.


NDZ001>003-009>011-017-280900-
NORTHWEST NORTH DAKOTA

CITY           SKY/WX    TMP DP  RH WIND       PRES   REMARKS
WILLISTON      CLOUDY    58  54  86 SE5       29.88F
MINOT          CLOUDY    59  56  89 E9        29.90F
MINOT AFB      CLOUDY    58  58 100 E9        29.90F
$$

NDZ018>021-031>035-040>046-280900-
SOUTHWEST NORTH DAKOTA

CITY           SKY/WX    TMP DP  RH WIND       PRES   REMARKS
BISMARCK       MOCLDY    59  57  93 E7        29.90F
DICKINSON      FOG       52  52 100 CALM      29.89F VSB 1/2
GARRISON         N/A     60  57  89 E5        29.90F
HETTINGER ARPT FOG       49  47  93 CALM      29.91F VSB 3/4
$$

NDZ004>008-012>016-024-026-027-054-280900-
NORTHEAST NORTH DAKOTA

CITY           SKY/WX    TMP DP  RH WIND       PRES   REMARKS
GRAND FORKS    CLOUDY    58  52  80 CALM      29.95S
GRND FRKS AFB  LGT RAIN  58  54  86 NE6       29.95F
DEVILS LAKE    CLOUDY    59  52  77 E8        29.94F
$$

NDZ022-023-025-028>030-036>039-047>053-280900-
SOUTHEAST NORTH DAKOTA

CITY           SKY/WX    TMP DP  RH WIND       PRES   REMARKS
FARGO          CLOUDY    65  54  67 E9        29.93F
JAMESTOWN      LGT RAIN  61  57  87 S9        29.98S
$$



USA.gov is the U.S. government's official web portal to all federal, state and local government web resources and services.